Regional Weather Roundup
Issued by NWS

Home | Current Version | Previous Version | Graphics & Text | Print | Product List | Glossary On
Versions: 1 2 3 4 5 6 7 8 9 10 11 12 13 14 15 16 17 18 19 20 21 22 23 24 25 26 27 28 29 30 31 32 33 34 35 36 37 38 39 40 41 42 43 44 45 46 47 48 49 50
647
ASUS44 KJAN 252103
RWRMS

MISSISSIPPI HOURLY WEATHER ROUNDUP
NATIONAL WEATHER SERVICE JACKSON MS
400 PM CDT SAT OCT 25 2014

NOTE: "FAIR: INDICATES FEW OR NO CLOUDS BELOW 12,000 FEET WITH NO
SIGNIFICANT WEATHER AND/OR OBSTRUCTIONS TO VISIBILITY.

MSZ001>002-007>008-010>013-018>021-025>028-034>036-252200-
NORTHWEST MISSISSIPPI

CITY           SKY/WX    TMP DP  RH WIND       PRES   REMARKS
CLARKSDALE     FAIR      82  64  54 SW10      30.04S
CLEVELAND      FAIR      82  65  54 W6        30.04S
GREENWOOD      SUNNY     81  61  50 NW6       30.05F
GREENVILLE     SUNNY     82  62  50 W7        30.05S
GRENADA          N/A    N/A N/A N/A MISG        N/A
OLIVE BRANCH   MOSUNNY   81  64  57 W3        30.04R
OXFORD         FAIR      77  61  57 W6        30.06S
TUNICA         CLEAR     82  63  51 SW6       30.03S
$$

MSZ003>006-009-014>017-022>024-029>033-037>039-252200-
NORTHEAST MISSISSIPPI

CITY           SKY/WX    TMP DP  RH WIND       PRES   REMARKS
COLUMBUS AFB   SUNNY     80  60  50 W3        30.04F
CORINTH        FAIR      81  63  54 W6G13     30.02S
GOLDN TRIANGLE MOSUNNY   81  61  50 W6        30.04F
STARKVILLE     FAIR      79  61  53 W6        30.05S
TUPELO         SUNNY     80  61  52 NW5       30.03F
$$

MSZ040-058-252200-
CENTRAL MISSISSIPPI

CITY           SKY/WX    TMP DP  RH WIND       PRES   REMARKS
JACKSON INTL   SUNNY     81  59  47 VRB5      30.07F
JACKSON HAWKNS SUNNY     79  60  52 W7        30.07F
MERIDIAN KEY   SUNNY     80  58  46 N7        30.05F
MERIDIAN NAS   SUNNY     80  58  46 NW8       30.06S
RAYMOND        FAIR      81  75  83 NW3       30.07F
VICKSBURG      SUNNY     81  60  48 VRB5      30.06F
$$

MSZ059>079-252200-
SOUTH MISSISSIPPI

CITY           SKY/WX    TMP DP  RH WIND       PRES   REMARKS
BROOKHAVEN     FAIR      79  61  53 N8        30.10F
COLUMBIA       FAIR      79  59  50 MISG        N/A
HATTIESBURG    SUNNY     80  58  46 NW5       30.06F
MCCOMB         SUNNY     81  54  39 N9        30.08F
NATCHEZ        SUNNY     79  57  47 W6        30.10F
PINE BELT      SUNNY     81  57  44 CALM      30.08F
$$

MSZ080>082-252200-
COASTAL MISSISSIPPI

CITY           SKY/WX    TMP DP  RH WIND       PRES   REMARKS
BILOXI         SUNNY     80  56  42 N8        30.05F
PASCAGOULA     SUNNY     80  54  40 N8        30.04F
GULFPORT       SUNNY     81  55  40 N10       30.04F
$$



USA.gov is the U.S. government's official web portal to all federal, state and local government web resources and services.